Location: Ermatingen
(47.6706°N, 9.0857°E)
Time: 02:38:46
(UTC+00:00)

ARIANE 5 R/B - Pass Details

Date: 18 September 2020
Orbit: 620 x 657 km, 98.2° (Epoch: 09 October)

Event Time Altitude Azimuth Distance (km) Brightness Sun altitude
Exits shadow 19:37:43 35° 52° (NE) 1,017 3.4 -21.6°
Drops below altitude 10° 19:41:12 10° 2° (N) 2,003 5.5 -22.1°
Sets 19:43:31 0° 354° (N) 2,911 6.5 -22.4°
